Weather reports worldwide

Advertisment
Pembrey Sands, United Kingdom (3605): temperature & dewpoint: 09.09.2019 09:00:00 - 15.09.2019 09:00:00 (BST)Pembrey Sands, United Kingdom (3605): wind speed & gusts: 09.09.2019 09:00:00 - 15.09.2019 09:00:00 (BST)Pembrey Sands, United Kingdom (3605): wind direction: 09.09.2019 09:00:00 - 15.09.2019 09:00:00 (BST)Pembrey Sands, United Kingdom (3605): reduced air pressure: 09.09.2019 09:00:00 - 15.09.2019 09:00:00 (BST)Pembrey Sands, United Kingdom (3605): visibility: 09.09.2019 09:00:00 - 15.09.2019 09:00:00 (BST)Pembrey Sands, United Kingdom (3605): precipitation: 09.09.2019 09:00:00 - 15.09.2019 09:00:00 (BST)
Date & Time tt [°C] td [°C] ff [km/h] ff [kn] fx [km/h] fx [kn] dd ppp [hPa] vv [km] rr [mm]
15.09.2019 09:00:00 - - - - - - - - - -
15.09.2019 08:00:00 - - - - - - - - - -
15.09.2019 07:00:00 - - - - - - - - - -
15.09.2019 06:00:00 - - - - - - - - - -
15.09.2019 05:00:00 - - - - - - - - - -
15.09.2019 04:00:00 - - - - - - - - - -
15.09.2019 03:00:00 - - - - - - - - - -
15.09.2019 02:00:00 - - - - - - - - - -
15.09.2019 01:00:00 - - - - - - - - - -
15.09.2019 00:00:00 - - - - - - - - - -
14.09.2019 23:00:00 - - - - - - - - - -
14.09.2019 22:00:00 - - - - - - - - - -
14.09.2019 21:00:00 - - - - - - - - - -
14.09.2019 20:00:00 - - - - - - - - - -
14.09.2019 19:00:00 - - - - - - - - - -
14.09.2019 18:00:00 - - - - - - - - - -
14.09.2019 17:00:00 - - - - - - - - - -
14.09.2019 16:00:00 - - - - - - - - - -
14.09.2019 15:00:00 - - - - - - - - - -
14.09.2019 14:00:00 - - - - - - - - - -
14.09.2019 13:00:00 - - - - - - - - - -
14.09.2019 12:00:00 - - - - - - - - - -
14.09.2019 11:00:00 - - - - - - - - - -
14.09.2019 10:00:00 - - - - - - - - - -
14.09.2019 09:00:00 - - - - - - - - - -
14.09.2019 08:00:00 - - - - - - - - - -
14.09.2019 07:00:00 - - - - - - - - - -
14.09.2019 06:00:00 4,8 3,5 5 3 - - ENE 1034,2 9 0,0
14.09.2019 05:00:00 6,5 4,8 5 3 - - ENE 1034,5 15 0,0
14.09.2019 04:00:00 9,0 8,0 11 6 - - E 1034,9 50 0,0
14.09.2019 03:00:00 6,4 5,1 4 2 - - NNW 1035,3 28 0,0
14.09.2019 02:00:00 8,3 5,9 9 5 - - E 1035,3 30 0,0
14.09.2019 01:00:00 10,9 9,3 13 7 - - E 1035,9 60 0,0
14.09.2019 00:00:00 8,6 6,9 8 4 - - NE 1036,1 35 0,0
13.09.2019 23:00:00 12,3 9,7 11 6 - - E 1035,8 55 0,0
13.09.2019 22:00:00 12,7 10,1 13 7 - - ENE 1036,1 50 0,0
13.09.2019 21:00:00 13,5 10,1 11 6 - - NE 1036,3 55 0,0
13.09.2019 20:00:00 13,8 10,1 9 5 - - NNE 1035,9 60 0,0
13.09.2019 19:00:00 16,2 11,2 16 9 - - N 1035,3 60 0,0
13.09.2019 18:00:00 17,7 10,8 22 12 - - N 1035,4 75 0,0
13.09.2019 17:00:00 18,9 11,4 16 9 - - NNE 1035,5 70 0,0
13.09.2019 16:00:00 19,0 9,4 11 6 - - NNE 1035,9 75 0,0
13.09.2019 15:00:00 19,0 8,5 13 7 - - NE 1036,0 75 0,0
13.09.2019 14:00:00 18,5 8,8 13 7 - - ENE 1035,9 60 0,0
13.09.2019 13:00:00 17,6 9,1 15 8 - - NE 1036,4 75 0,0
13.09.2019 12:00:00 16,6 9,9 16 9 - - NE 1036,6 75 0,0
13.09.2019 11:00:00 15,9 11,2 21 11 - - NNE 1036,5 55 0,0
13.09.2019 10:00:00 13,7 11,0 9 5 - - NE 1036,7 65 0,0
13.09.2019 09:00:00 11,4 11,0 4 2 - - NE 1036,1 65 0,0
13.09.2019 08:00:00 8,7 8,3 2 1 - - E 1035,5 40 0,0
13.09.2019 07:00:00 6,6 6,1 5 3 - - ENE 1034,8 0,1 0,0
13.09.2019 06:00:00 7,3 6,7 5 3 - - N 1033,9 0,4 0,0
13.09.2019 05:00:00 9,4 8,8 5 3 - - ENE 1033,6 18 0,0
13.09.2019 04:00:00 10,1 9,5 9 5 - - N 1033,0 14 0,0
13.09.2019 03:00:00 10,7 9,8 8 4 - - N 1032,5 27 0,0
13.09.2019 02:00:00 12,2 11,4 16 9 - - N 1031,9 35 0,0
13.09.2019 01:00:00 13,2 12,1 15 8 - - N 1031,3 50 0,0
13.09.2019 00:00:00 14,5 13,1 24 13 - - N 1030,4 75 0,0
12.09.2019 23:00:00 15,8 14,6 22 12 - - N 1029,9 55 0,0
12.09.2019 22:00:00 15,6 14,9 16 9 - - N 1029,3 75 0,0
12.09.2019 21:00:00 16,8 16,4 22 12 - - W 1028,6 4,8 0,0
12.09.2019 20:00:00 16,9 16,5 26 14 - - W 1027,8 6 0,2
12.09.2019 19:00:00 17,1 16,7 35 19 48 26 WSW 1027,6 1,1 0,0
12.09.2019 18:00:00 17,0 16,6 41 22 48 26 SW 1027,1 1,7 0,6
12.09.2019 17:00:00 16,9 16,4 41 22 52 28 SW 1027,1 1,2 0,2
12.09.2019 16:00:00 17,0 16,2 42 23 54 29 SW 1027,0 1,6 0,0
12.09.2019 15:00:00 17,6 15,9 41 22 48 26 SW 1027,1 7 0,0
12.09.2019 14:00:00 17,9 16,0 39 21 48 26 SW 1027,3 10 0,0
12.09.2019 13:00:00 18,2 16,3 39 21 48 26 SW 1027,2 12 0,0
12.09.2019 12:00:00 17,6 15,9 41 22 52 28 SW 1027,3 12 0,0
12.09.2019 11:00:00 16,7 16,0 41 22 54 29 SSW 1026,9 6 0,2
12.09.2019 10:00:00 16,8 15,7 29 16 - - SSW 1026,6 14 0,0
12.09.2019 09:00:00 16,3 15,6 29 16 - - WSW 1026,1 16 0,0
12.09.2019 08:00:00 16,4 15,8 37 20 52 28 WSW 1025,8 - 0,0
12.09.2019 07:00:00 16,7 16,2 34 18 - - WSW 1025,2 - 0,0
12.09.2019 06:00:00 16,7 16,0 29 16 - - WSW 1024,9 - 0,0
12.09.2019 05:00:00 16,7 15,6 21 11 - - WSW 1024,6 - 0,0
12.09.2019 04:00:00 16,6 14,9 26 14 - - WSW 1024,7 - 0,0
12.09.2019 03:00:00 16,2 14,3 28 15 - - WSW 1024,7 - 0,0
12.09.2019 02:00:00 16,1 14,3 28 15 - - WSW 1024,7 - 0,0
12.09.2019 01:00:00 15,8 14,1 26 14 - - WSW 1024,2 50 0,0
12.09.2019 00:00:00 16,0 14,0 26 14 - - W 1024,2 - 0,0
11.09.2019 23:00:00 15,9 14,0 24 13 - - W 1024,4 - 0,0
11.09.2019 22:00:00 15,7 13,8 21 11 - - W 1024,0 - 0,0
11.09.2019 21:00:00 15,9 14,0 21 11 - - W 1023,6 - 0,0
11.09.2019 20:00:00 16,3 14,4 26 14 - - W 1022,6 - 0,0
11.09.2019 19:00:00 16,7 14,9 29 16 - - WSW 1021,9 - 0,0
11.09.2019 18:00:00 17,6 15,3 26 14 - - WSW 1021,4 9 0,0
11.09.2019 17:00:00 17,7 15,9 31 17 - - WSW 1020,9 - 0,0
11.09.2019 16:00:00 17,5 16,0 29 16 - - WSW 1020,9 - 0,0
11.09.2019 15:00:00 17,9 16,9 26 14 - - WSW 1020,7 - 0,0
11.09.2019 14:00:00 17,7 16,5 21 11 - - W 1020,2 - 0,0
11.09.2019 13:00:00 17,3 16,4 31 17 - - W 1019,7 - 0,0
11.09.2019 12:00:00 17,2 16,5 34 18 - - W 1019,4 - 0,0
11.09.2019 11:00:00 17,0 16,3 37 20 52 28 W 1019,0 6 0,0
11.09.2019 10:00:00 16,8 16,2 41 22 54 29 W 1018,5 - 0,6
11.09.2019 09:00:00 16,6 15,9 44 24 57 31 WSW 1018,1 7 0,0
11.09.2019 08:00:00 16,8 16,1 41 22 59 32 W 1018,1 4,2 0,0
11.09.2019 07:00:00 16,8 16,3 42 23 55 30 WSW 1017,6 4,5 0,0
11.09.2019 06:00:00 16,6 16,1 42 23 61 33 WSW 1017,9 - 0,0
11.09.2019 05:00:00 16,5 16,0 44 24 61 33 WSW 1017,9 - 0,0
11.09.2019 04:00:00 16,5 15,9 52 28 63 34 WSW 1018,2 - 0,8
11.09.2019 03:00:00 16,0 15,3 48 26 59 32 SW 1018,8 3,3 0,2
11.09.2019 02:00:00 15,8 14,8 42 23 55 30 SW 1019,7 2,0 0,0
11.09.2019 01:00:00 15,8 13,7 37 20 52 28 SW 1020,1 13 0,0
11.09.2019 00:00:00 15,7 12,6 41 22 54 29 SW 1020,6 20 0,0
10.09.2019 23:00:00 15,5 11,9 37 20 - - WSW 1021,1 26 0,0
10.09.2019 22:00:00 15,3 11,1 35 19 - - WSW 1021,5 29 0,0
10.09.2019 21:00:00 15,0 10,7 29 16 - - WSW 1021,4 27 0,0
10.09.2019 20:00:00 14,6 9,1 28 15 - - W 1021,6 30 0,0
10.09.2019 19:00:00 14,8 8,2 26 14 - - W 1021,7 30 0,0
10.09.2019 18:00:00 15,3 8,2 28 15 - - W 1021,6 35 0,0
10.09.2019 17:00:00 16,4 8,8 31 17 - - W 1021,9 30 0,0
10.09.2019 16:00:00 17,2 10,8 26 14 - - W 1021,6 30 0,0
10.09.2019 15:00:00 17,3 9,9 18 10 - - WSW 1021,8 50 0,0
10.09.2019 14:00:00 17,4 9,2 15 8 - - W 1021,7 55 0,0
10.09.2019 13:00:00 17,2 9,0 15 8 - - NW 1021,6 45 0,0
10.09.2019 12:00:00 16,4 9,5 18 10 - - NW 1021,7 50 0,0
10.09.2019 11:00:00 15,8 11,1 18 10 - - NNW 1021,3 35 0,0
10.09.2019 10:00:00 15,2 11,3 21 11 - - N 1021,3 35 0,0
10.09.2019 09:00:00 14,1 11,1 18 10 - - N 1020,7 30 0,0
10.09.2019 08:00:00 12,6 10,4 16 9 - - N 1019,9 30 0,0
10.09.2019 07:00:00 12,3 10,4 9 5 - - N 1019,2 29 0,0
10.09.2019 06:00:00 13,2 11,1 16 9 - - N 1018,5 30 0,0
10.09.2019 05:00:00 13,3 11,3 21 11 - - N 1018,0 30 0,0
10.09.2019 04:00:00 13,4 11,3 21 11 - - NNW 1017,7 30 0,0
10.09.2019 03:00:00 12,9 11,1 13 7 - - N 1017,1 30 0,0
10.09.2019 02:00:00 12,9 11,0 21 11 - - N 1016,8 30 0,0
10.09.2019 01:00:00 12,3 10,5 13 7 52 28 N 1016,3 27 0,0
10.09.2019 00:00:00 12,9 10,8 18 10 - - N 1015,7 30 0,0
09.09.2019 23:00:00 12,6 10,5 16 9 - - N 1015,2 35 0,0
09.09.2019 22:00:00 12,7 10,6 16 9 - - N 1014,6 30 0,0
09.09.2019 21:00:00 13,5 10,8 28 15 48 26 N 1013,5 30 0,0
09.09.2019 20:00:00 14,0 11,1 31 17 55 30 N 1012,2 30 0,0
09.09.2019 19:00:00 14,5 12,0 29 16 50 27 N 1011,3 35 0,0
09.09.2019 18:00:00 14,3 12,4 29 16 - - N 1010,7 40 0,2
09.09.2019 17:00:00 14,4 13,1 18 10 - - N 1009,6 21 0,4
09.09.2019 16:00:00 15,1 13,8 13 7 - - N 1009,2 4,3 10,6
09.09.2019 15:00:00 17,0 13,9 9 5 - - SW 1008,7 50 0,0
09.09.2019 14:00:00 16,1 13,8 11 6 - - SSW 1008,4 65 0,0
09.09.2019 13:00:00 16,2 14,1 22 12 - - SSE 1008,5 35 0,0
09.09.2019 12:00:00 15,6 13,5 22 12 - - SSE 1008,6 40 0,0
09.09.2019 11:00:00 15,0 13,5 24 13 - - S 1008,9 14 0,0
09.09.2019 10:00:00 14,4 13,3 13 7 - - SE 1009,3 22 0,0
09.09.2019 09:00:00 15,1 13,6 21 11 46 25 SSW 1009,7 17 0,2

tt = temperature
td = dewpoint
ff = wind speed
fx = gusts
dd = wind direction
ppp = reduced air pressure
vv = visibility
rr = precipitation

Next stations